Location: Unspecified
(0.0000°N, 1.0000°E)
Time: 00:46:07
(UTC+02:00)

Daily predictions for brighter satellites

Satellite Brightness Start Highest point End
(mag) Time Altitude Azimuth Time Altitude Azimuth Time Altitude Azimuth
SL-16 R/B 3.8 05:11:24 10° NNE 05:16:29 30° E 05:21:09 10° SE
Atlas Centaur 2 3.7 05:22:00 43° N 05:22:00 43° N 05:28:31 10° NE
Cosmos 2322 Rocket 3.4 05:24:30 10° N 05:29:41 39° ENE 05:34:52 10° SE
ARIANE DEB (SPELDA) 4.0 05:35:03 65° SSE 05:35:03 65° SSE 05:56:03 10° E
SJ 16-02 3.3 05:39:48 10° NNE 05:43:33 28° E 05:47:20 10° SE
Cosmos 1553 Rocket 4.1 05:44:41 68° N 05:44:41 68° N 05:50:11 10° N
Hubble Space Telescope 3.0 05:46:02 24° ENE 05:46:02 24° ENE 05:48:22 10° E
Ariane 42L Rocket 4.4 05:46:06 55° SSW 05:47:15 59° S 06:20:10 10° E
Cosmos 1674 4.3 05:58:55 33° ESE 05:59:10 33° E 06:02:36 10° NNE
CZ-4B R/B 3.3 05:53:48 10° NNE 05:59:10 71° ESE 06:00:28 50° SSE
Aurora 2 Rocket 4.0 06:03:57 25° E 06:03:57 25° E 06:05:43 10° ESE
GPS 2-15 Rocket1 3.4 06:03:53 64° E 06:03:53 64° E 06:07:53 10° ESE
PAYLOAD B 4.1 05:57:49 10° N 06:03:24 81° WNW 06:03:45 76° SW
Ariane H10 3.0 06:03:07 60° SW 06:04:00 69° SSE 06:22:59 10° E
Cosmos 44 Rocket 4.3 05:59:23 10° N 06:04:22 49° ENE 06:09:19 10° SE
Nadezhda 2 Rocket 4.4 06:07:24 10° NNW 06:13:44 66° W 06:20:07 10° S
Ariane H10+ 3.9 06:13:56 34° NNW 06:15:23 45° NNE 06:29:29 10° E
Ariane H10-3 3.5 06:17:36 26° SE 06:17:36 26° SE 06:18:43 10° ESE
OAO 1 Rocket 4.4 06:16:14 61° WNW 06:16:46 65° NW 06:22:03 10° NE
Centaur D-1AR AC-36 4.2 06:15:23 12° NNW 06:19:34 36° NE 06:39:10 10° E
ARIANE 44P R/B 3.0 06:20:50 35° ESE 06:20:50 35° ESE 06:22:46 10° E
Cosmos 1315 Rocket 2.7 06:20:20 77° S 06:20:37 89° W 06:24:39 10° N
KORONAS-FOTON 4.4 06:20:13 19° SSE 06:22:48 55° E 06:26:35 10° NNE
GPS 2-14 Rocket1 4.3 06:23:44 22° NNW 06:23:44 22° NNW 06:26:29 10° NNE
ARIANE 5 DEB (SYLDA) 4.4 06:22:02 41° W 06:24:44 90° N 06:39:37 10° E
CZ-4B DEB 4.4 06:20:15 10° N 06:25:27 45° WNW 06:26:04 43° W
Ariane H10 3.9 06:25:07 30° WNW 06:28:07 69° NNE 07:05:14 10° E
ARIANE 5 R/B 1.5 06:28:58 60° S 06:29:04 61° S 06:35:36 10° E
S3M 4.4 06:29:52 35° W 06:30:00 35° W 06:35:30 10° NNW
COSMOS 2455 3.2 06:24:27 10° S 06:30:24 64° ESE 06:36:20 10° NNE
ARIANE 44LP R/B 2.8 06:30:59 44° ENE 06:30:59 44° ENE 06:32:25 10° E
USA 161 3.6 06:28:17 10° SE 06:30:59 30° E 06:33:42 10° NNE
Cosmos 883 Rocket 4.4 06:24:47 10° S 06:31:07 79° W 06:37:23 10° N
Meteor 1-31 Rocket 4.4 06:27:51 10° NNW 06:29:22 20° NNW 06:29:22 20° NNW
Cosmos 2082 3.6 06:29:26 18° SSW 06:33:41 82° WNW 06:39:21 10° NNE
SWIFT 2.9 06:32:34 29° NW 06:34:25 51° NNE 06:38:30 10° E
DASH 4.5 06:32:59 19° NW 06:35:02 26° N 06:44:38 10° NE
FUSE 3.9 06:36:02 34° SW 06:38:24 78° SSE 06:43:44 10° ENE
Cosmos 2360 Rocket 2.3 06:35:04 10° NNW 06:40:40 79° ENE 06:46:19 10° SSE
Okean O Rocket 3.2 06:39:13 10° NNW 06:41:10 19° NW 06:41:10 19° NW
SL-08 R/B 4.3 06:38:00 10° N 06:44:08 74° W 06:50:14 10° S
Cosmos 2227 Rocket 2.6 06:42:27 26° SW 06:45:00 41° WNW 06:50:15 10° N
Cosmos 2297 Rocket 2.5 06:43:55 21° SW 06:47:20 46° WNW 06:52:43 10° N
Cosmos 1125 Rocket 3.5 06:42:39 10° NNW 06:47:47 56° WSW 06:52:54 10° S
Cosmos 2315 Rocket 3.9 06:43:10 10° S 06:49:28 75° W 06:55:42 10° N
Cosmos 1745 Rocket 4.0 06:43:39 10° N 06:49:55 87° W 06:56:17 10° S
Palapa 6 Rocket 4.0 06:47:15 13° NW 06:51:10 51° NNE 06:56:32 10° E
ARIANE 44LP R/B 2.6 06:52:32 22° S 06:52:37 22° S 06:54:26 10° SE
ATLAS CENTAUR R/B 3.1 06:51:21 10° N 06:55:53 42° ENE 07:00:31 10° SE
Shenzhou-11 Module 4.4 06:56:24 11° NW 06:56:24 11° NW 06:57:19 10° NNW
Yuri Rocket 4.0 06:54:05 22° W 06:56:57 47° NNW 07:02:53 10° NE
GPS 2-12 Rocket1 2.9 06:55:25 23° WSW 06:58:07 83° NNW 07:02:35 10° ENE
Cosmos 372 Rocket 4.4 06:53:37 10° NW 06:58:18 36° WSW 07:02:58 10° SSW
Maqsat-B 4.3 06:48:55 13° W 06:59:26 45° N 07:03:25 10° ENE
SL-16 R/B 3.4 06:59:12 18° W 07:00:05 19° WSW 07:03:55 10° SSW
GPS 2-17 Rocket1 3.7 06:58:21 21° WSW 07:00:50 38° SSW 07:05:00 10° SE
COSMOS 2441 4.4 06:57:47 10° NNE 07:02:33 86° ESE 07:07:22 10° S
IDEFIX/ARIANE 42P 3.1 07:03:17 10° N 07:08:07 38° WNW 07:12:59 10° SW
COSMOS 2428 3.8 07:04:05 10° N 07:09:30 49° ENE 07:14:57 10° SSE
Sea Lan Dem Rocket 3.4 06:56:54 14° W 07:10:19 85° S 07:14:28 10° E
ISS -2.4 07:10:14 16° W 07:11:48 22° NW 07:14:23 10° N
Cosmos 2322 Rocket 3.7 07:10:47 10° WNW 07:13:27 14° WSW 07:16:07 10° SW
Cosmos 2292 Rocket 4.2 07:12:59 10° NW 07:15:12 19° W 07:17:39 10° SW
SJ-12 3.9 07:14:42 10° NNE 07:18:48 89° E 07:22:57 10° S
ARIANE 5 DEB (SYLDA) 2.0 07:17:41 12° WNW 07:19:18 59° N 07:22:57 10° E
Intelsat 5-3 Rocket 3.5 07:18:01 10° SSW 07:19:33 16° SSE 07:21:12 10° ESE
Delta 2 Rocket 4.2 07:13:16 11° WSW 07:20:31 74° NNW 07:26:52 10° NE
SJ 16-02 3.2 07:20:34 10° W 07:21:52 11° WSW 07:23:11 10° WSW
Hubble Space Telescope 1.3 07:22:00 10° W 07:25:54 41° SSW 07:29:50 10° SE
Ariane 3 Deb 2.7 07:23:59 10° WSW 07:26:23 44° S 07:31:39 10° ESE
Intercosmos 25 Rocket 3.0 07:23:27 10° S 07:26:36 70° W 07:30:28 10° N
Cosmos 1709 Rocket 4.1 07:24:14 10° N 07:30:35 84° W 07:37:00 10° S
ARIANE 5 R/B 2.5 07:25:39 10° W 07:36:41 71° S 07:39:26 10° E
ARIANE 5 DEB (SYLDA) 4.0 07:29:52 10° W 07:42:05 71° S 07:45:42 10° E
